FENGYUN 1C DEB, 29791

Orbit data source: Space-Track

FENGYUN 1C DEB, 29791 is space debris in SSO originally from a launch on Mon, 10 May 1999 UTC launched from the Taiyaun Space Center, China (TSC). Fengyun 1C debris stems from the Chinese weather satellite Fengyun-1C, which was intentionally destroyed by a Chinese anti-satellite missile in 2007. This event dramatically increased the amount of space debris, with thousands of trackable fragments posing hazards to satellites and human spaceflight. The Fengyun 1C debris cloud has become a focal point in discussions about space sustainability and the need for international regulations to prevent the creation of new debris.

Loading next visibility...
Identifier
29791, 1999-025CH
Orbit
SSO
Country
Flag of CNCN / PRC
Related business
Manufacturer
Unknown
Mission
Spacecraft
Bus & Motor
Unknown
Mass
Unknown
Launch date (UTC)
1999-05-10 (27 years ago)
Launch vehicle
Unknown
Launch site
Taiyaun Space Center, China (TSC)
Object type
Payload
Rocket body
Debris
Shape & HBR
Unknown shape, 0.2 m
Radar Cross Section
Medium (>0.1 m² and <1 m²)

Expand to show TLE details & history
Last TLE update: 20 hours ago

TLE from 20 hours ago
0 FENGYUN 1C DEB
1 29791U 99025CH  26256.05017240  .00003122  00000-0  63432-3 0  9992
2 29791  99.0292 286.0837 0036861 307.1111  81.6772 14.61536371 28494
Epoch: 2026-09-13T01:12Z
TLE epoch observation values (Epoch: 2026-09-13T01:12:14.895Z)
Latitude
28.85855°
Longitude
-89.02554°
Altitude
688.141 km
Speed
7.517 km/s
True Right ascension
18h 44m 20s
True Declination
28° 42' 43"
Sunlit
Object was in daylight at epoch
Visualization orbit readout
Latitude
Unknown
Longitude
Unknown
Altitude
Unknown
Speed
Unknown
Apparent Right ascension
Unknown
Apparent Declination
Unknown
Sunlit
N/A
Visualization observer readout
Local Sidereal Time
13:35:30
Azimuth
Unknown
Elevation
Unknown
Doppler factor
Unknown
Orbital elements
Apogee altitude
711.373 km
Perigee altitude
659.3 km
Semi-major axis
7,063.474 km
Eccentricity
0.00369
Inclination
99.0292°
RAAN
286.0837°
Arg. of periapsis
307.1111°
True anomaly
82.09542°
Mean anomaly
81.6772°
Eccentric anomaly
81.88628°
Mean motion
3.65608 °/min
Orbital period
98.47 mins
BSTAR
0.00063432
Loading maneuver chart data...
Computing Atmospheric mass density...

Documentation

Showing up to 5 results
|